Temp
45 35 30 34 36 36 33 29 26 32 39 30 31 34 40 43 43 39 39 40 41 43 49 53 55 57 54 56 57 58 57 58 55 53 57 60 60 61 61 62 62 63 63 63
38 31 39 41 39 36 33 27 25 31 35 33 29 29 37 41 35 37 36 35 36 39 43 47 51 54 54 55 56 57 58 59 57 56 58 60 60 61 61 61 62 62 62 62
32 37 43 39 34 30 29 25 24 24 30 31 29 25 28 33 35 35 34 33 33 33 37 42 47 50 51 52 54 57 58 58 58 59 59 60 60 60 59 60 60 61 62 62
34 42 38 33 30 32 20 32 28 26 21 17 26 15 22 28 27 28 28 28 29 31 34 39 45 48 49 53 55 57 58 58 61 60 59 60 59 58 58 60 61 61 61 61
33 34 32 25 30 33 22 31 28 27 22 20 24 18 18 25 19 21 24 25 27 31 41 39 43 48 50 53 51 54 55 55 57 59 60 58 58 59 59 59 59 60 60 60
35 43 37 33 35 35 32 27 29 30 24 15 23 22 13 14 15 18 22 23 25 31 37 41 46 49 49 50 51 51 51 49 52 51 52 53 50 50 51 52 50 47 46 46
31 34 38 36 27 33 26 20 13 12 15 14 27 18 13 17 18 18 18 20 24 29 33 36 39 42 47 47 49 48 46 44 45 46 46 46 45 45 43 43 42 42 41 41
18 16 28 32 25 20 24 16 6 4 10 14 25 11 14 21 21 20 20 22 25 26 30 33 35 37 41 43 43 43 43 42 43 42 42 42 41 41 40 40 39 38 38 38
19 18 36 32 33 28 20 14 25 14 18 13 16 21 25 24 18 18 18 22 21 24 27 30 33 34 35 36 39 39 38 38 39 39 40 38 38 38 37 37 37 35 36 37
24 15 34 34 30 30 25 28 14 13 -1 4 14 9 6 11 10 14 14 17 20 23 25 28 30 31 32 34 35 36 34 32 35 36 35 35 35 36 35 34 33 32 32 32
29 21 24 29 16 14 18 15 19 18 13 5 5 5 12 10 11 11 14 18 19 21 23 25 27 28 29 30 31 32 32 31 31 32 32 32 31 32 31 30 29 29 29 28
30 20 18 15 23 30 24 15 14 5 5 8 7 6 14 11 13 13 14 17 19 21 22 24 25 25 26 26 28 29 29 28 30 31 31 31 31 30 29 28 28 28 27 28
26 24 14 15 22 28 17 20 19 17 17 10 8 9 18 15 13 12 13 15 17 19 20 22 22 23 24 25 26 26 27 28 29 30 30 30 30 30 30 30 30 30 29 29
32 24 14 11 14 19 12 14 19 17 7 5 8 9 12 11 9 10 12 15 16 17 18 19 21 22 23 24 24 25 26 28 29 29 29 28 28 29 29 30 29 29 29 28
27 16 14 16 15 18 17 7 13 11 12 9 8 10 11 9 9 10 12 13 14 15 16 17 19 21 22 23 24 25 25 27 28 28 27 27 29 29 28 28 28 28 27 27
29 19 15 12 16 13 14 15 14 13 9 13 13 11 15 14 12 10 10 12 11 14 15 17 19 21 22 22 23 27 27 27 28 26 25 26 26 26 27 27 27 26 25 25
23 17 13 15 16 17 13 11 7 7 8 10 5 13 15 11 9 9 10 11 11 13 15 15 18 20 22 24 26 23 24 26 25 25 25 25 25 24 24 25 24 24 24 25
24 17 17 15 17 8 19 17 15 9 8 8 10 14 15 12 12 13 13 12 12 13 14 16 18 21 21 23 23 24 24 23 23 22 23 24 23 22 22 22 21 21 22 22
26 19 18 15 11 19 23 15 16 14 13 10 11 12 16 16 18 15 14 15 14 14 15 15 17 17 20 20 22 22 20 21 21 19 19 20 21 20 20 20 20 21 21 21
29 23 19 15 11 9 18 19 24 20 15 13 13 15 20 24 12 10 10 11 9 11 12 12 14 18 19 19 22 22 20 19 18 19 19 19 20 19 18 19 19 20 21 21
13 13 17 16 14 19 18 25 29 17 22 16 16 13 18 18 11 7 10 9 12 12 12 15 15 14 16 19 20 18 18 16 19 20 20 20 20 19 19 19 20 19 19 19
20 17 13 15 13 16 24 25 20 21 13 14 12 13 9 7 5 6 7 8 12 10 14 17 16 17 17 21 20 17 15 17 17 17 16 16 17 20 19 16 18 18 17 16
20 25 24 26 26 19 20 18 15 17 17 15 17 16 16 15 13 15 15 16 18 19 19 19 17 16 17 17 17 14 14 15 13 12 10 11 14 17 19 16 16 16 15 15
27 29 22 23 22 18 17 18 19 20 23 26 25 22 22 20 19 19 19 19 18 19 18 17 15 13 12 14 15 14 15 13 6 8 10 12 13 14 15 17 17 14 15 14
28 28 26 24 23 21 22 24 24 24 26 27 25 25 25 23 21 20 20 20 19 18 17 15 13 12 11 11 10 8 11 8 11 10 12 11 12 10 12 15 14 14 16 18
28 27 27 30 31 31 31 28 28 27 28 27 26 24 26 26 23 22 19 19 17 14 13 11 10 9 6 5 4 3 3 6 7 11 10 10 10 9 10 8 7 20 20 20
MSLP
1014.36 1014.74 1014.79 1014.97 1015.09 1014.94 1014.63 1014.37 1013.68 1013.07 1012.54 1012.65 1011.93 1011.03 1010.40 1010.51 1010.93 1011.32 1011.53 1011.43 1010.94 1010.11 1008.95 1007.78 1006.95 1005.92 1005.95 1006.21 1006.47 1006.19 1006.12 1005.88 1005.85 1006.22 1006.08 1005.63 1005.22 1005.19 1005.98 1005.91 1006.15 1006.55 1007.85 1008.53
1014.67 1014.85 1015.14 1015.17 1015.03 1014.87 1014.84 1014.53 1013.81 1013.15 1013.13 1013.19 1012.91 1012.39 1012.04 1012.13 1013.56 1013.78 1013.70 1013.63 1013.12 1011.92 1010.48 1009.05 1007.86 1006.93 1006.16 1006.08 1006.15 1005.93 1005.73 1005.57 1005.41 1005.56 1005.54 1005.49 1005.09 1004.62 1006.08 1006.41 1006.90 1007.49 1007.62 1008.52
1015.56 1015.46 1015.27 1015.21 1015.21 1015.15 1015.39 1014.84 1014.26 1014.03 1013.49 1012.75 1012.88 1013.89 1013.35 1014.42 1015.04 1015.37 1015.64 1015.65 1014.84 1013.66 1011.70 1009.95 1008.76 1007.76 1007.05 1006.40 1005.91 1005.62 1005.37 1005.20 1005.06 1005.02 1005.16 1005.41 1005.43 1005.20 1006.50 1006.26 1007.88 1007.39 1008.54 1009.18
1016.18 1015.65 1015.77 1015.89 1016.08 1015.90 1014.60 1014.81 1014.58 1013.97 1014.04 1013.26 1013.87 1014.61 1015.27 1015.83 1016.33 1016.66 1016.83 1016.67 1015.70 1013.98 1011.86 1010.52 1009.20 1008.30 1007.31 1006.56 1005.73 1005.42 1005.18 1005.06 1004.59 1004.41 1004.95 1005.34 1005.25 1005.61 1006.46 1007.12 1007.72 1007.69 1008.69 1009.03
1016.35 1016.09 1016.11 1016.34 1016.26 1016.11 1015.57 1014.75 1013.90 1013.48 1013.73 1014.15 1013.52 1015.01 1017.61 1017.74 1017.93 1018.69 1018.70 1018.12 1016.79 1014.69 1011.30 1010.28 1009.47 1008.27 1007.28 1006.59 1006.15 1005.77 1005.56 1005.43 1004.52 1004.15 1004.64 1005.23 1005.69 1005.77 1006.62 1007.47 1007.25 1008.27 1008.90 1009.01
1016.78 1016.30 1016.75 1017.04 1016.85 1016.39 1016.33 1014.44 1012.91 1013.15 1013.60 1014.29 1014.34 1015.52 1019.07 1020.32 1021.63 1020.76 1019.96 1018.93 1017.56 1015.24 1012.69 1010.83 1008.87 1007.77 1007.09 1006.61 1006.29 1006.39 1006.50 1006.53 1005.96 1005.37 1006.08 1006.17 1006.21 1006.28 1007.76 1008.35 1009.07 1009.84 1010.55 1010.72
1017.64 1016.88 1017.37 1017.80 1017.13 1016.73 1016.94 1015.59 1014.96 1014.37 1014.41 1015.03 1015.27 1017.01 1021.15 1022.32 1022.88 1023.03 1021.96 1020.52 1018.99 1016.79 1013.91 1012.20 1010.60 1009.24 1007.98 1007.64 1007.35 1007.52 1007.57 1007.54 1007.76 1007.00 1007.29 1007.91 1007.67 1008.24 1009.64 1010.52 1011.23 1012.04 1012.28 1012.51
1019.71 1018.39 1018.42 1018.82 1019.35 1019.69 1018.58 1018.72 1018.86 1018.39 1017.17 1016.54 1016.32 1018.57 1021.01 1022.39 1023.56 1023.62 1023.22 1022.04 1019.95 1017.16 1015.79 1014.07 1012.88 1011.57 1010.44 1009.62 1009.58 1009.11 1008.63 1009.13 1009.48 1008.41 1009.25 1009.26 1009.28 1010.04 1011.35 1012.26 1012.86 1013.45 1014.08 1014.62
1021.45 1020.17 1019.17 1019.33 1019.81 1020.42 1019.74 1020.05 1020.15 1019.93 1018.59 1018.42 1018.42 1019.88 1020.76 1021.80 1023.12 1023.61 1023.06 1021.56 1020.52 1019.39 1017.93 1016.34 1015.01 1014.07 1013.05 1012.09 1011.73 1010.96 1010.78 1011.42 1010.34 1010.49 1010.74 1010.98 1011.75 1012.42 1012.95 1013.32 1013.97 1014.48 1015.93 1016.59
1022.56 1021.71 1019.64 1019.62 1020.54 1021.03 1021.15 1021.33 1020.93 1020.71 1020.99 1020.42 1020.42 1022.23 1023.98 1023.76 1024.06 1024.53 1023.84 1023.26 1022.44 1021.33 1019.70 1018.42 1017.37 1016.41 1015.36 1014.55 1013.89 1013.57 1013.30 1012.72 1011.85 1011.62 1012.15 1012.96 1014.07 1014.27 1014.52 1014.52 1015.66 1016.10 1017.71 1017.76
1022.64 1022.86 1020.92 1020.43 1022.57 1023.16 1022.36 1022.53 1022.27 1022.32 1022.27 1022.47 1022.95 1023.97 1025.91 1026.73 1027.04 1026.62 1025.75 1025.16 1024.16 1022.85 1021.59 1020.50 1019.50 1018.47 1017.54 1016.60 1016.03 1015.51 1015.26 1014.33 1012.58 1013.21 1014.06 1015.12 1015.57 1016.25 1016.82 1016.91 1017.48 1018.34 1019.56 1018.93
1022.88 1023.19 1022.43 1022.03 1022.79 1023.22 1023.81 1024.34 1024.14 1024.02 1023.76 1023.25 1023.81 1025.12 1026.65 1027.58 1028.34 1027.56 1027.59 1026.32 1025.15 1024.32 1023.19 1022.46 1020.92 1019.99 1019.22 1018.45 1017.22 1017.13 1017.29 1013.60 1014.71 1014.81 1015.44 1016.57 1017.91 1018.95 1018.73 1018.86 1019.85 1019.79 1019.86 1020.89
1023.39 1023.35 1023.31 1022.88 1023.28 1023.85 1024.53 1024.76 1025.06 1025.01 1024.82 1024.32 1024.96 1025.85 1026.26 1028.37 1028.41 1028.45 1028.28 1027.38 1026.51 1025.20 1024.08 1023.67 1021.95 1021.16 1020.30 1019.54 1020.02 1020.11 1017.80 1016.21 1016.75 1016.92 1017.81 1018.75 1019.69 1020.43 1019.98 1020.66 1021.75 1021.11 1020.47 1022.76
1023.68 1024.08 1024.58 1025.02 1024.88 1025.48 1026.31 1026.20 1025.40 1025.36 1026.39 1026.58 1026.30 1026.22 1027.18 1028.59 1029.52 1028.98 1028.98 1028.15 1027.45 1026.23 1024.83 1024.75 1023.24 1022.91 1022.08 1022.43 1022.09 1021.14 1017.87 1018.64 1018.73 1019.08 1019.76 1020.55 1021.56 1021.91 1021.71 1022.34 1023.40 1023.09 1022.81 1023.84
1023.84 1024.52 1024.91 1024.67 1024.97 1025.62 1026.57 1027.15 1026.79 1026.78 1027.77 1027.98 1027.63 1026.84 1028.71 1029.43 1030.48 1030.95 1029.50 1028.81 1028.03 1027.43 1026.35 1025.73 1025.18 1023.99 1023.76 1023.96 1023.08 1021.12 1020.77 1020.87 1021.22 1021.34 1021.92 1022.47 1023.26 1023.71 1024.10 1024.79 1025.14 1025.01 1024.66 1025.78
1024.04 1024.39 1025.01 1025.08 1024.93 1025.86 1026.15 1027.25 1027.34 1028.01 1028.39 1028.18 1028.57 1028.09 1028.55 1029.78 1030.98 1031.35 1030.30 1030.03 1028.55 1028.72 1027.91 1027.00 1026.11 1026.48 1026.33 1025.51 1023.91 1022.78 1022.89 1023.29 1023.50 1024.00 1024.16 1024.72 1025.09 1025.51 1026.15 1026.07 1026.14 1026.21 1027.05 1027.79
1024.67 1024.98 1024.99 1024.71 1024.63 1025.36 1026.47 1026.71 1027.81 1028.70 1029.25 1029.65 1029.44 1029.36 1029.55 1029.67 1030.60 1031.47 1030.82 1030.66 1030.51 1029.54 1029.00 1028.55 1028.48 1028.14 1027.44 1026.43 1025.27 1024.81 1024.90 1025.23 1025.59 1025.80 1025.91 1026.29 1026.86 1027.29 1027.82 1027.78 1028.00 1027.72 1028.66 1029.12
1025.28 1025.34 1025.18 1024.68 1024.18 1025.23 1025.56 1025.89 1026.95 1028.33 1029.39 1029.42 1029.73 1029.70 1029.55 1030.31 1031.15 1032.10 1032.08 1031.29 1031.37 1030.82 1030.73 1030.65 1030.14 1029.45 1028.49 1027.60 1026.88 1026.51 1026.61 1027.12 1027.56 1027.38 1027.83 1028.41 1028.59 1028.64 1029.19 1029.20 1028.70 1029.69 1030.38 1029.90
1025.57 1025.67 1025.37 1025.03 1024.60 1024.62 1025.36 1025.63 1025.96 1027.19 1028.90 1029.15 1029.52 1029.69 1029.56 1029.57 1030.23 1031.45 1032.50 1032.48 1032.14 1032.03 1032.08 1031.67 1030.95 1030.25 1029.60 1029.02 1028.62 1028.39 1028.70 1029.12 1029.03 1029.03 1029.40 1029.49 1029.45 1029.70 1029.85 1030.20 1031.17 1031.37 1030.73 1031.41
1025.48 1025.79 1025.86 1024.66 1024.36 1023.90 1023.68 1024.07 1024.60 1025.42 1027.57 1028.56 1028.91 1029.21 1029.56 1029.73 1030.85 1031.94 1032.78 1033.51 1033.84 1033.40 1032.62 1032.41 1031.76 1031.25 1030.55 1030.21 1030.03 1029.95 1030.14 1030.13 1030.19 1030.50 1030.97 1031.18 1031.17 1031.43 1031.78 1032.00 1031.83 1032.04 1032.07 1032.24
1025.17 1025.21 1024.97 1024.19 1023.93 1022.88 1022.86 1023.60 1024.50 1025.66 1026.76 1027.43 1028.38 1029.06 1029.73 1030.57 1031.39 1031.60 1032.50 1033.23 1033.47 1033.38 1032.96 1032.32 1031.87 1031.70 1031.62 1031.33 1030.97 1031.13 1031.27 1031.60 1031.94 1031.91 1032.15 1032.29 1032.46 1032.57 1032.70 1032.91 1032.96 1032.86 1032.98 1032.81
1023.32 1023.69 1023.68 1023.36 1023.54 1023.05 1022.93 1024.31 1024.66 1024.76 1025.93 1026.61 1027.93 1028.80 1029.72 1030.54 1031.37 1031.91 1032.33 1032.44 1032.66 1032.87 1033.05 1033.08 1032.97 1032.79 1032.52 1032.14 1032.09 1032.35 1032.48 1033.00 1033.09 1033.02 1033.01 1033.05 1033.47 1033.68 1033.24 1033.52 1033.81 1033.94 1033.39 1032.94
1022.34 1021.60 1021.73 1021.83 1021.58 1021.91 1022.49 1023.29 1023.88 1024.15 1025.06 1026.47 1027.07 1028.31 1029.19 1030.16 1030.96 1031.46 1032.00 1032.22 1032.31 1032.35 1032.54 1032.83 1033.17 1033.52 1033.71 1033.67 1033.74 1033.84 1034.30 1034.09 1034.00 1034.21 1034.69 1034.84 1034.16 1033.94 1034.23 1034.35 1034.16 1033.99 1034.10 1034.40
1021.08 1020.91 1021.28 1021.24 1021.01 1021.73 1022.62 1023.27 1023.64 1023.90 1024.39 1025.23 1026.13 1027.26 1028.25 1028.96 1029.96 1030.67 1031.16 1031.57 1032.05 1032.54 1032.99 1033.33 1033.57 1033.87 1034.20 1034.46 1034.66 1034.88 1035.31 1035.59 1035.60 1035.72 1035.55 1035.30 1035.12 1035.04 1034.98 1034.94 1035.03 1035.15 1035.15 1035.14
1020.21 1020.53 1020.11 1020.18 1020.42 1021.34 1021.75 1022.22 1022.94 1023.70 1024.02 1024.73 1025.77 1026.45 1027.28 1028.17 1029.09 1029.87 1030.68 1031.41 1032.07 1032.66 1033.29 1033.89 1034.50 1035.02 1035.44 1035.71 1036.05 1036.21 1036.31 1036.16 1035.99 1035.99 1035.96 1035.96 1035.98 1036.02 1036.00 1035.80 1035.65 1035.70 1035.54 1035.22
1018.53 1017.84 1018.14 1017.39 1016.86 1017.58 1018.20 1019.97 1021.54 1022.59 1023.12 1023.82 1024.71 1026.18 1026.90 1027.62 1028.61 1029.65 1030.72 1031.50 1032.23 1033.05 1033.71 1034.37 1034.92 1035.47 1036.07 1036.40 1036.68 1036.77 1036.72 1036.48 1036.35 1036.51 1036.55 1036.54 1036.54 1036.64 1036.71 1036.65 1036.71 1036.14 1036.32 1036.26
Wind_Speed
2 3 7 11 9 12 15 16 20 18 17 13 12 12 8 13 6 12 14 15 16 18 19 18 18 5 1 2 8 8 7 8 3 3 3 4 3 3 3 6 11 5 10 11
1 6 10 12 13 15 15 21 20 15 11 12 12 17 15 8 17 16 17 18 19 19 19 19 18 14 7 5 8 8 8 7 5 4 3 3 2 3 4 4 8 10 6 10
2 7 12 14 14 17 17 18 14 19 21 18 12 5 11 11 15 17 18 19 19 20 22 18 17 13 12 9 8 8 8 6 7 7 3 2 1 6 2 6 5 9 9 9
6 8 14 13 14 19 18 15 20 20 9 5 8 3 16 14 17 21 22 22 23 25 22 17 15 12 10 11 8 8 6 7 9 8 6 10 5 7 3 5 6 8 12 11
4 10 12 9 16 22 8 24 19 18 8 1 1 2 6 13 20 25 23 25 26 26 15 10 11 10 9 11 8 6 7 9 8 4 7 6 5 5 5 3 6 6 5 7
6 7 3 7 18 12 26 17 10 2 3 0 10 1 8 11 16 22 22 26 27 26 22 18 9 8 8 8 6 8 11 12 13 15 12 9 11 13 9 9 9 9 8 8
12 5 6 10 16 6 20 17 5 4 3 4 6 10 6 14 14 15 21 23 23 23 23 23 23 20 13 14 12 11 13 16 13 15 16 13 16 18 16 12 11 11 9 10
7 8 6 6 6 11 10 6 3 5 5 5 8 5 5 16 11 13 14 16 21 28 24 23 22 20 18 17 15 14 15 15 11 18 17 16 19 13 13 15 12 12 12 12
6 5 8 8 5 16 10 6 8 4 5 3 3 6 4 23 15 18 21 25 27 25 24 22 21 19 17 17 16 16 16 12 16 18 17 20 18 17 17 19 17 15 14 12
3 7 5 3 7 9 5 6 4 4 6 7 4 4 5 24 25 24 24 23 23 22 23 21 19 19 18 17 14 16 15 13 17 21 20 18 18 17 18 19 21 21 17 17
1 2 7 7 7 8 9 6 5 2 2 2 4 2 3 10 14 17 17 19 19 19 19 17 17 16 16 17 16 14 11 13 21 23 22 22 20 19 18 20 20 21 19 21
3 2 5 4 5 5 10 7 4 3 6 2 4 2 2 6 11 13 15 16 17 16 16 17 16 16 16 17 16 12 8 24 21 23 25 24 21 19 19 22 20 20 22 21
5 3 5 5 3 4 5 10 9 5 2 4 4 3 7 12 12 12 13 14 14 15 16 17 16 16 17 17 13 7 11 22 22 23 23 22 20 18 22 22 18 20 25 20
2 1 4 6 8 1 4 7 12 5 3 7 1 11 14 14 13 14 13 13 12 14 17 17 16 16 16 13 8 7 22 20 21 22 22 22 19 18 20 20 18 19 21 20
2 2 1 5 3 2 2 1 6 5 4 2 8 11 9 8 8 10 11 12 13 15 17 17 16 17 15 9 8 17 20 20 19 21 20 20 19 18 19 18 17 18 20 18
1 2 3 5 5 4 6 4 1 4 5 4 2 3 11 6 6 11 10 12 15 13 15 16 19 13 10 8 13 19 19 18 17 18 19 17 18 17 16 16 17 18 18 16
4 3 4 4 4 4 5 2 2 0 1 3 5 5 7 10 11 12 12 12 12 13 14 16 12 10 11 12 15 17 17 16 17 16 17 17 16 16 15 15 15 17 16 14
4 4 1 6 3 6 7 1 8 6 3 2 2 3 1 1 2 8 10 11 12 13 13 11 10 10 12 12 14 15 16 16 15 17 16 14 14 15 13 14 16 15 11 14
3 3 4 2 1 3 1 5 5 6 3 5 3 0 1 3 3 6 10 10 10 8 7 6 7 7 8 10 12 14 14 13 14 15 14 13 13 14 14 15 12 9 12 11
4 3 1 3 1 3 6 4 4 4 4 7 6 5 4 3 5 4 3 2 2 4 5 4 5 5 10 10 10 13 13 13 15 14 13 12 12 12 11 10 11 10 10 11
2 2 4 2 3 7 4 7 6 6 7 8 8 5 3 2 2 3 4 2 1 1 2 4 6 5 5 6 9 12 12 13 10 10 11 11 11 11 10 9 8 9 9 10
7 6 5 2 2 7 7 6 7 6 4 6 6 5 5 5 5 4 2 2 2 2 2 3 4 7 7 8 9 10 12 9 9 10 11 11 9 7 7 8 8 8 7 10
2 6 4 7 6 2 5 3 2 5 9 6 8 6 10 10 6 7 6 6 6 5 4 4 5 7 7 6 7 10 7 8 8 10 7 5 7 9 8 8 7 6 6 6
5 3 3 4 2 4 5 2 4 4 6 12 9 14 12 11 11 10 8 6 5 4 4 4 5 6 8 8 9 8 7 5 4 6 5 5 7 8 7 6 6 6 6 6
4 6 5 5 1 2 5 8 10 7 10 12 14 12 14 12 11 8 7 6 5 5 5 4 5 6 5 5 5 4 4 2 6 5 5 5 5 5 5 7 6 7 7 7
8 10 8 8 10 7 8 17 18 16 18 17 17 14 9 11 10 8 6 6 6 6 4 5 5 6 4 5 5 4 4 5 5 6 5 4 4 4 5 3 3 11 10 11
Wind_Direction
316 297 1 331 321 299 293 307 306 304 302 2 326 322 311 26 32 27 10 355 346 336 331 328 332 290 288 286 276 273 266 252 203 205 223 248 224 117 74 112 111 77 158 137
58 31 351 317 295 313 321 312 305 302 336 319 305 305 300 351 23 10 7 356 339 329 324 319 318 325 314 265 256 261 263 262 247 191 208 224 238 96 101 96 121 130 117 141
347 334 330 335 334 326 319 301 315 312 317 287 250 13 53 36 23 11 9 351 339 325 309 303 301 304 310 288 258 253 255 269 280 192 187 130 87 73 103 110 169 136 151 148
290 328 346 340 317 340 314 337 309 301 319 296 39 138 34 13 4 6 359 346 336 324 292 279 282 282 286 288 262 264 287 282 273 181 189 194 190 145 146 155 176 147 168 161
316 319 332 320 336 331 308 313 300 289 259 258 124 132 10 20 358 353 348 340 335 328 332 244 261 273 281 296 304 309 344 357 331 191 187 171 160 125 145 146 125 158 166 153
281 276 351 352 332 320 334 313 296 200 124 277 41 152 34 14 355 340 342 340 337 339 351 358 314 260 253 266 301 52 52 37 34 65 60 81 81 66 67 47 58 47 46 38
316 77 14 11 333 360 345 352 355 19 27 43 14 63 63 16 6 346 338 332 338 346 359 1 5 7 37 38 50 57 54 51 41 67 63 64 73 81 75 68 70 62 51 45
353 343 27 341 47 329 346 37 56 345 346 322 39 23 121 38 7 351 343 342 349 3 357 4 8 8 17 36 40 53 59 60 62 65 65 64 65 73 80 76 74 70 61 55
346 292 347 47 21 17 322 29 289 274 211 266 84 25 208 354 355 358 358 2 3 358 358 1 11 14 17 23 34 45 55 60 63 74 71 66 68 74 80 78 74 70 63 63
352 295 314 96 8 25 10 337 5 328 17 338 73 89 282 342 340 351 358 1 355 357 1 7 14 13 18 22 30 41 49 58 70 74 68 64 65 67 73 77 75 73 67 62
75 178 301 39 32 25 3 17 322 236 95 256 308 259 27 333 344 347 348 354 355 357 360 8 14 15 22 24 29 34 43 73 71 70 71 68 61 60 67 75 73 72 70 66
80 283 287 213 200 75 87 350 330 50 319 240 209 279 79 24 2 344 358 354 354 4 4 16 16 21 26 27 26 14 35 67 67 69 68 67 68 67 72 68 70 75 75 66
325 334 315 336 274 100 36 357 340 285 276 294 324 36 37 27 1 358 359 359 358 5 16 23 19 24 25 23 21 6 63 69 70 71 72 71 70 71 71 70 69 74 78 75
245 303 145 186 220 207 24 341 353 357 60 316 350 294 354 2 2 349 357 1 7 12 18 26 17 26 22 17 7 35 63 64 69 71 71 72 69 66 69 71 65 67 73 72
52 246 129 276 237 225 131 344 12 11 343 58 309 315 10 2 1 3 345 4 16 23 22 21 20 26 13 7 31 58 65 64 66 71 70 69 68 67 69 72 72 67 69 67
49 289 127 270 240 162 313 76 73 39 342 306 299 300 360 11 29 33 7 15 13 22 25 18 21 10 14 26 53 62 64 65 67 70 72 73 69 66 65 69 69 70 70 73
323 338 9 290 180 146 6 310 94 335 268 288 24 305 355 353 22 25 11 14 20 16 23 18 6 12 23 38 51 59 63 65 66 69 68 68 70 69 65 66 66 67 66 66
322 334 353 278 76 37 242 42 139 139 217 265 265 333 291 126 83 57 28 12 19 13 12 6 356 16 25 41 52 62 60 63 64 65 68 70 71 70 66 66 60 60 65 62
165 296 307 64 260 212 160 223 175 148 286 194 161 291 30 210 251 62 42 26 11 357 352 339 346 350 23 49 59 66 66 68 66 63 61 58 58 63 60 58 62 63 66 70
164 190 308 345 114 222 213 219 129 110 346 189 165 203 176 181 38 278 63 59 21 337 321 345 344 22 40 35 59 70 68 64 59 58 59 58 61 65 67 67 57 55 59 64
225 231 221 240 271 292 182 152 151 83 223 158 169 180 193 210 234 151 114 81 99 304 325 354 4 34 45 41 53 63 64 62 64 64 64 63 63 65 65 71 68 65 60 57
172 158 211 58 34 305 155 110 162 187 34 136 130 149 127 132 133 127 166 203 187 146 96 76 74 55 30 41 60 65 58 47 52 61 60 53 48 61 57 60 60 57 54 50
276 190 196 176 215 200 199 157 238 145 138 175 136 144 146 144 171 170 181 186 189 165 112 78 84 79 52 56 61 77 61 54 51 55 44 38 40 47 52 53 49 53 51 48
233 146 217 38 254 210 189 144 156 184 147 151 144 152 164 162 166 176 175 170 158 133 110 94 77 66 60 44 56 64 68 55 74 79 66 53 56 47 39 48 52 51 52 46
187 134 192 260 169 38 234 193 168 177 146 143 150 163 174 166 175 165 169 159 141 130 114 98 100 99 91 80 69 51 55 72 85 80 68 61 55 62 57 52 57 44 18 53
182 187 176 220 186 174 196 177 165 165 170 162 158 167 179 169 166 155 153 149 144 142 123 112 108 115 107 100 87 50 29 51 66 65 48 44 47 38 43 54 28 55 58 44